• In Hungary
  • List of Countries
  • For 7 days
  • Water Temperature
  • Satellite Maps
  • Weather Map
  • News
  • Weather Widgets
  • user-avatar
    Login

    Hourly Weather Nagpur

    Today, 20 August, Sunday

    Time Temperature Precipitation Wind Pressure Humidity
    00:00 +27°C° 0 mm 3 mps 724 mmHg 90%
    01:00 +27°C° 0 mm 3 mps 724 mmHg 91%
    02:00 +27°C° 0 mm 3 mps 724 mmHg 91%
    03:00 +27°C° 0 mm 3 mps 724 mmHg 92%
    04:00 +26°C° 0 mm 3 mps 724 mmHg 92%
    05:00 +26°C° 0 mm 2 mps 723 mmHg 95%
    06:00 +27°C° 0.2 mm 3 mps 724 mmHg 92%
    07:00 +28°C° 0.2 mm 4 mps 724 mmHg 88%
    08:00 +29°C° 0.2 mm 5 mps 724 mmHg 85%
    09:00 +30°C° 0.9 mm 5 mps 724 mmHg 82%
    10:00 +30°C° 0.9 mm 5 mps 724 mmHg 79%
    11:00 +32°C° 0.9 mm 5 mps 724 mmHg 77%
    12:00 +32°C° 2 mm 4 mps 723 mmHg 76%
    13:00 +33°C° 2 mm 4 mps 722 mmHg 76%
    14:00 +33°C° 2 mm 4 mps 722 mmHg 76%
    15:00 +32°C° 2.1 mm 4 mps 722 mmHg 78%
    16:00 +31°C° 2.1 mm 3 mps 721 mmHg 81%
    17:00 +30°C° 2.1 mm 3 mps 721 mmHg 84%
    18:00 +29°C° 0.2 mm 3 mps 722 mmHg 85%
    19:00 +29°C° 0.2 mm 2 mps 722 mmHg 87%
    20:00 +28°C° 0.2 mm 2 mps 723 mmHg 89%
    21:00 +27°C° 0 mm 2 mps 723 mmHg 90%
    22:00 +27°C° 0 mm 3 mps 723 mmHg 90%
    23:00 +27°C° 0 mm 3 mps 723 mmHg 91%

    Tomorrow, 21 August, Monday

    Time Temperature Precipitation Wind Pressure Humidity
    00:00 +26°C° 0.1 mm 3 mps 723 mmHg 91%
    01:00 +26°C° 0.1 mm 3 mps 722 mmHg 91%
    02:00 +25°C° 0.1 mm 3 mps 722 mmHg 92%
    03:00 +25°C° 0 mm 3 mps 722 mmHg 91%
    04:00 +25°C° 0 mm 3 mps 722 mmHg 91%
    05:00 +25°C° 0 mm 3 mps 722 mmHg 91%
    06:00 +25°C° 0 mm 4 mps 723 mmHg 91%
    07:00 +25°C° 0 mm 4 mps 723 mmHg 90%
    08:00 +25°C° 0 mm 4 mps 724 mmHg 89%
    09:00 +26°C° 0 mm 4 mps 724 mmHg 87%
    10:00 +26°C° 0 mm 4 mps 724 mmHg 85%
    11:00 +27°C° 0 mm 4 mps 724 mmHg 83%
    12:00 +27°C° 0.1 mm 4 mps 724 mmHg 83%
    13:00 +27°C° 0.1 mm 4 mps 723 mmHg 82%
    14:00 +28°C° 0.1 mm 4 mps 723 mmHg 81%
    15:00 +27°C° 0.1 mm 4 mps 723 mmHg 83%
    16:00 +27°C° 0.1 mm 3 mps 723 mmHg 84%
    17:00 +27°C° 0.1 mm 3 mps 723 mmHg 86%
    18:00 +26°C° 0 mm 3 mps 723 mmHg 87%
    19:00 +26°C° 0 mm 3 mps 724 mmHg 88%
    20:00 +26°C° 0 mm 3 mps 724 mmHg 89%
    21:00 +25°C° 0 mm 3 mps 724 mmHg 91%
    22:00 +25°C° 0 mm 2 mps 724 mmHg 92%
    23:00 +25°C° 0 mm 2 mps 724 mmHg 94%

    Day after tomorrow, 22 August, Tuesday

    Time Temperature Precipitation Wind Pressure Humidity
    00:00 +25°C° 0 mm 2 mps 724 mmHg 94%
    01:00 +25°C° 0 mm 2 mps 723 mmHg 94%
    02:00 +25°C° 0 mm 2 mps 723 mmHg 94%
    03:00 +25°C° 0.1 mm 2 mps 723 mmHg 94%
    04:00 +25°C° 0.1 mm 2 mps 723 mmHg 94%
    05:00 +25°C° 0.1 mm 2 mps 724 mmHg 94%
    06:00 +25°C° 0.1 mm 2 mps 724 mmHg 94%
    07:00 +26°C° 0.1 mm 2 mps 725 mmHg 93%
    08:00 +26°C° 0.1 mm 2 mps 725 mmHg 92%
    09:00 +27°C° 0.1 mm 2 mps 725 mmHg 90%
    10:00 +27°C° 0.1 mm 3 mps 725 mmHg 87%
    11:00 +28°C° 0.1 mm 3 mps 725 mmHg 85%
    12:00 +29°C° 0.2 mm 3 mps 725 mmHg 82%
    13:00 +30°C° 0.2 mm 3 mps 724 mmHg 79%
    14:00 +30°C° 0.2 mm 3 mps 724 mmHg 75%
    15:00 +30°C° 0.4 mm 3 mps 724 mmHg 77%
    16:00 +30°C° 0.4 mm 3 mps 724 mmHg 79%
    17:00 +30°C° 0.4 mm 3 mps 723 mmHg 81%
    18:00 +29°C° 0.1 mm 3 mps 724 mmHg 84%
    19:00 +28°C° 0.1 mm 2 mps 725 mmHg 88%
    20:00 +27°C° 0.1 mm 2 mps 726 mmHg 91%
    21:00 +27°C° 0 mm 2 mps 726 mmHg 92%
    22:00 +26°C° 0 mm 1 mps 726 mmHg 93%
    23:00 +26°C° 0 mm 1 mps 726 mmHg 94%

    23 August, Wednesday

    Time Temperature Precipitation Wind Pressure Humidity
    00:00 +26°C° 0.1 mm 1 mps 726 mmHg 95%
    01:00 +26°C° 0.1 mm 1 mps 725 mmHg 95%
    02:00 +26°C° 0.1 mm 1 mps 725 mmHg 96%
    03:00 +26°C° 0 mm 1 mps 725 mmHg 96%
    04:00 +26°C° 0 mm 1 mps 725 mmHg 96%
    05:00 +26°C° 0 mm 1 mps 725 mmHg 96%
    06:00 +27°C° 0 mm 1 mps 726 mmHg 92%
    07:00 +28°C° 0 mm 1 mps 727 mmHg 88%
    08:00 +28°C° 0 mm 2 mps 727 mmHg 84%
    09:00 +29°C° 0.4 mm 2 mps 727 mmHg 80%
    10:00 +30°C° 0.4 mm 1 mps 727 mmHg 76%
    11:00 +31°C° 0.4 mm 1 mps 727 mmHg 72%
    12:00 +32°C° 1.1 mm 1 mps 726 mmHg 70%
    13:00 +33°C° 1.1 mm 1 mps 725 mmHg 68%
    14:00 +33°C° 1.1 mm 1 mps 724 mmHg 66%
    15:00 +33°C° 1.2 mm 1 mps 724 mmHg 68%
    16:00 +33°C° 1.2 mm 1 mps 724 mmHg 70%
    17:00 +32°C° 1.2 mm 1 mps 724 mmHg 72%
    18:00 +31°C° 2.6 mm 1 mps 725 mmHg 76%
    19:00 +30°C° 2.6 mm 1 mps 725 mmHg 80%
    20:00 +29°C° 2.6 mm 1 mps 726 mmHg 85%
    21:00 +29°C° 1.1 mm 1 mps 726 mmHg 85%
    22:00 +29°C° 1.1 mm 1 mps 726 mmHg 86%
    23:00 +28°C° 1.1 mm 1 mps 726 mmHg 86%

    24 August, Thursday

    Time Temperature Precipitation Wind Pressure Humidity
    00:00 +28°C° 0.3 mm 1 mps 725 mmHg 87%
    01:00 +28°C° 0.3 mm 1 mps 725 mmHg 87%
    02:00 +28°C° 0.3 mm 1 mps 725 mmHg 87%
    03:00 +28°C° 0 mm 1 mps 725 mmHg 88%
    04:00 +27°C° 0 mm 1 mps 725 mmHg 89%
    05:00 +27°C° 0 mm 1 mps 725 mmHg 89%
    06:00 +28°C° 0 mm 2 mps 726 mmHg 87%
    07:00 +29°C° 0 mm 2 mps 726 mmHg 84%
    08:00 +30°C° 0 mm 2 mps 727 mmHg 82%
    09:00 +31°C° 0.3 mm 2 mps 727 mmHg 77%
    10:00 +32°C° 0.3 mm 2 mps 726 mmHg 72%
    11:00 +35°C° 0.3 mm 2 mps 726 mmHg 67%
    12:00 +35°C° 0.9 mm 2 mps 725 mmHg 65%
    13:00 +35°C° 0.9 mm 2 mps 725 mmHg 64%
    14:00 +35°C° 0.9 mm 2 mps 724 mmHg 62%
    15:00 +35°C° 1.1 mm 2 mps 724 mmHg 66%
    16:00 +34°C° 1.1 mm 2 mps 724 mmHg 71%
    17:00 +32°C° 1.1 mm 2 mps 724 mmHg 76%
    18:00 +32°C° 0.8 mm 1 mps 724 mmHg 78%
    19:00 +31°C° 0.8 mm 1 mps 725 mmHg 80%
    20:00 +30°C° 0.8 mm 1 mps 725 mmHg 83%
    21:00 +29°C° 2 mm 1 mps 725 mmHg 84%
    22:00 +29°C° 2 mm 1 mps 725 mmHg 85%
    23:00 +29°C° 2 mm 1 mps 725 mmHg 86%

    25 August, Friday

    Time Temperature Precipitation Wind Pressure Humidity
    00:00 +29°C° 0.4 mm 1 mps 725 mmHg 86%
    01:00 +28°C° 0.4 mm 2 mps 724 mmHg 87%
    02:00 +28°C° 0.4 mm 2 mps 724 mmHg 88%
    03:00 +28°C° 0 mm 2 mps 724 mmHg 88%
    04:00 +28°C° 0 mm 2 mps 724 mmHg 89%
    05:00 +28°C° 0 mm 2 mps 724 mmHg 90%
    06:00 +28°C° 0.1 mm 3 mps 725 mmHg 88%
    07:00 +29°C° 0.1 mm 3 mps 725 mmHg 86%
    08:00 +29°C° 0.1 mm 3 mps 726 mmHg 85%
    09:00 +30°C° 1.8 mm 4 mps 726 mmHg 81%
    10:00 +32°C° 1.8 mm 4 mps 726 mmHg 78%
    11:00 +33°C° 1.8 mm 4 mps 725 mmHg 75%
    12:00 +33°C° 1.5 mm 4 mps 725 mmHg 75%
    13:00 +33°C° 1.5 mm 4 mps 724 mmHg 75%
    14:00 +33°C° 1.5 mm 4 mps 723 mmHg 75%
    15:00 +33°C° 0.8 mm 4 mps 723 mmHg 77%
    16:00 +32°C° 0.8 mm 4 mps 723 mmHg 79%
    17:00 +31°C° 0.8 mm 3 mps 723 mmHg 81%
    18:00 +30°C° 0.8 mm 3 mps 723 mmHg 83%
    19:00 +29°C° 0.8 mm 3 mps 724 mmHg 85%
    20:00 +28°C° 0.8 mm 3 mps 724 mmHg 87%
    21:00 +28°C° 0.5 mm 3 mps 724 mmHg 88%
    22:00 +28°C° 0.5 mm 3 mps 724 mmHg 88%
    23:00 +27°C° 0.5 mm 3 mps 724 mmHg 89%
    Show more